CDT,Max TemperatureF,Mean TemperatureF,Min TemperatureF,Max Dew PointF,MeanDew PointF,Min DewpointF,Max Humidity, Mean Humidity, Min Humidity, Max Sea Level PressureIn, Mean Sea Level PressureIn, Min Sea Level PressureIn, Max VisibilityMiles, Mean VisibilityMiles, Min VisibilityMiles, Max Wind SpeedMPH, Mean Wind SpeedMPH, Max Gust SpeedMPH,PrecipitationIn, CloudCover, Events, WindDirDegrees
2013-6-1,60,56,51,57,53,43,93,82,71,30.07,29.73,29.54,10,10,2,26,15,33,0.02,8,Rain,323
2013-6-2,68,59,49,45,43,37,86,60,34,30.14,30.08,30.01,10,10,10,13,5,16,0.00,3,,352
2013-6-3,73,58,42,49,45,41,96,67,38,30.02,29.93,29.82,10,10,10,29,13,39,T,1,Rain,136
2013-6-4,69,61,53,61,57,50,97,85,72,30.04,29.94,29.82,10,9,4,28,7,36,0.45,6,Rain-Thunderstorm,159
2013-6-5,63,57,50,54,50,46,89,78,67,30.05,30.02,29.99,10,10,10,17,7,23,0.00,6,,293
2013-6-6,67,57,47,54,51,46,100,80,60,30.06,30.02,29.99,10,10,9,14,6,17,0.00,6,,9
2013-6-7,71,57,43,52,47,43,100,74,47,30.06,30.00,29.86,10,7,0,15,3,21,0.00,2,Fog,138
2013-6-8,60,57,53,59,55,48,100,84,67,29.86,29.76,29.68,10,5,2,28,13,33,1.87,8,Rain,123
2013-6-9,66,59,52,59,57,53,100,89,78,29.87,29.69,29.59,10,6,1,23,12,29,0.19,7,Rain,7
2013-6-10,75,61,46,62,54,46,100,80,60,29.90,29.85,29.79,10,4,0,14,6,18,0.00,1,Fog,129
2013-6-11,85,72,58,67,63,59,100,74,47,29.89,29.80,29.74,10,10,9,28,11,36,T,1,Rain-Thunderstorm,79
2013-6-12,71,64,57,64,59,51,93,78,63,30.06,29.85,29.66,10,10,7,25,12,32,T,6,Rain,13
2013-6-13,78,66,53,56,53,50,93,68,42,30.14,30.07,29.99,10,10,10,15,6,17,0.00,1,,91
2013-6-14,84,74,63,68,61,55,79,67,54,30.01,29.87,29.76,10,10,10,31,13,43,0.00,2,,155
2013-6-15,81,70,58,64,61,56,93,69,45,29.99,29.91,29.85,10,9,2,23,4,38,0.26,3,Rain-Thunderstorm,28
2013-6-16,83,67,51,58,52,47,89,59,28,29.99,29.96,29.91,10,10,10,15,4,23,0.00,3,,245
2013-6-17,83,72,60,57,53,48,84,59,33,30.02,29.99,29.94,10,10,10,23,9,29,0.00,2,,310
2013-6-18,83,70,56,58,53,49,87,57,25,30.06,30.01,29.94,10,10,10,13,4,17,0.00,2,,37
2013-6-19,86,75,63,64,59,54,73,55,34,29.99,29.92,29.84,10,10,10,21,12,28,T,5,Thunderstorm,156
2013-6-20,88,79,70,70,66,62,78,64,48,29.89,29.82,29.76,10,10,10,24,16,32,0.00,5,,161
2013-6-21,87,77,67,73,67,57,90,74,52,29.91,29.81,29.72,10,9,2,29,14,37,0.20,6,Rain-Thunderstorm,108
2013-6-22,76,71,66,67,65,62,93,81,68,29.93,29.85,29.71,10,9,1,28,9,35,0.65,7,Rain-Thunderstorm,98
2013-6-23,79,71,62,67,63,60,93,74,54,29.90,29.80,29.64,10,9,2,29,7,36,0.22,5,Rain-Thunderstorm,269
2013-6-24,80,71,61,70,65,59,100,84,67,29.94,29.82,29.73,10,9,1,23,7,36,0.42,6,Rain-Thunderstorm,125
2013-6-25,87,77,67,70,68,65,100,74,48,29.75,29.70,29.67,10,10,9,17,8,23,0.00,4,,149
2013-6-26,88,78,68,72,65,60,93,67,40,29.85,29.77,29.65,10,10,8,16,8,22,0.00,3,,300
2013-6-27,85,76,67,67,62,55,84,61,37,29.97,29.92,29.85,10,10,10,15,7,24,T,3,Thunderstorm,282
2013-6-28,82,72,61,60,57,53,90,65,39,29.98,29.95,29.91,10,10,10,31,15,39,0.00,1,,315
2013-6-29,76,68,59,61,57,53,90,68,46,30.00,29.94,29.90,10,10,10,26,12,36,0.00,3,,343
2013-6-30,77,65,53,57,53,49,93,68,43,30.17,30.11,30.03,10,10,6,13,5,26,0.00,2,,40